Station History

Weather Underground - logo

Station Historical Data
Daily Summary for February 28, 2018 Units:  Metric    English   Both
« Previous Day
Next Day »
Daily Weekly Monthly Yearly Custom
  High: Low: Average:
Temperature: 14.4 °C 2.2 °C 8.8 °C
Dew Point: 5.7 °C 1.3 °C 3.9 °C
Humidity: 95 % 45 % 74 %
Wind Speed: 7.4 km/h 0 km/h 1.1 km/h
Wind Gust: 7.4 km/h - -
Wind:- - SW
Pressure: 1024.9 hPa 1021.2 hPa -
Precipitation: 0 mm    
Historical Graphs
 
 
Tabular Data for February 28, 2018
Time Temperature Dew Point Pressure Wind Wind Speed Wind Gust Humidity Rainfall Rate (Hourly)
00:01 2.2 °C 1.3 °C 1021.6 hPa Calm     94 % 0 mm
00:06 2.2 °C 1.3 °C 1021.6 hPa Calm     94 % 0 mm
00:11 2.3 °C 1.4 °C 1021.9 hPa Calm     94 % 0 mm
00:16 2.3 °C 1.4 °C 1021.9 hPa Calm     94 % 0 mm
00:21 2.4 °C 1.5 °C 1021.9 hPa Calm     94 % 0 mm
00:26 2.4 °C 1.6 °C 1021.9 hPa Calm     94 % 0 mm
00:31 2.6 °C 1.8 °C 1021.9 hPa Calm     95 % 0 mm
00:32 2.6 °C 1.9 °C 1021.9 hPa Calm     95 % 0 mm
00:37 2.7 °C 1.9 °C 1021.9 hPa Calm     95 % 0 mm
00:42 2.8 °C 2.1 °C 1021.9 hPa Calm     95 % 0 mm
00:47 2.9 °C 2.2 °C 1021.9 hPa Calm     95 % 0 mm
00:52 3 °C 2.3 °C 1021.9 hPa Calm     95 % 0 mm
00:57 3.1 °C 2.3 °C 1021.9 hPa Calm     95 % 0 mm
01:02 3.2 °C 2.4 °C 1021.9 hPa Calm     95 % 0 mm
01:07 3.2 °C 2.5 °C 1021.9 hPa Calm     95 % 0 mm
01:12 3.3 °C 2.6 °C 1021.9 hPa Calm     95 % 0 mm
01:17 3.4 °C 2.7 °C 1021.9 hPa Calm     95 % 0 mm
01:22 3.4 °C 2.5 °C 1021.9 hPa Calm     94 % 0 mm
01:27 3.5 °C 2.6 °C 1021.9 hPa Calm     94 % 0 mm
01:32 3.6 °C 2.7 °C 1021.9 hPa Calm     94 % 0 mm
01:37 3.6 °C 2.7 °C 1021.9 hPa Calm     94 % 0 mm
01:42 3.6 °C 2.7 °C 1021.9 hPa Calm     94 % 0 mm
01:47 3.6 °C 2.7 °C 1021.9 hPa Calm     94 % 0 mm
01:52 3.6 °C 2.7 °C 1021.9 hPa Calm     94 % 0 mm
01:57 3.7 °C 2.8 °C 1021.9 hPa Calm     94 % 0 mm
02:02 3.7 °C 2.8 °C 1021.9 hPa Calm     94 % 0 mm
02:07 3.8 °C 2.9 °C 1021.9 hPa Calm     94 % 0 mm
02:12 3.9 °C 3 °C 1021.9 hPa Calm     94 % 0 mm
02:17 3.9 °C 2.8 °C 1021.9 hPa Calm     93 % 0 mm
02:22 3.8 °C 2.8 °C 1021.9 hPa Calm     93 % 0 mm
02:27 3.8 °C 2.8 °C 1021.9 hPa Calm     93 % 0 mm
02:32 3.9 °C 2.8 °C 1021.9 hPa Calm     93 % 0 mm
02:37 3.9 °C 2.8 °C 1021.9 hPa Calm     93 % 0 mm
02:42 3.9 °C 2.8 °C 1021.9 hPa Calm     93 % 0 mm
02:47 3.9 °C 2.9 °C 1021.9 hPa Calm     93 % 0 mm
02:52 3.9 °C 2.9 °C 1021.9 hPa Calm     93 % 0 mm
02:57 4 °C 2.9 °C 1021.9 hPa Calm     93 % 0 mm
03:02 4 °C 2.9 °C 1021.9 hPa Calm     93 % 0 mm
03:07 4 °C 2.9 °C 1021.9 hPa Calm     93 % 0 mm
03:12 4.1 °C 3 °C 1021.9 hPa Calm     93 % 0 mm
03:17 4 °C 2.9 °C 1021.9 hPa NW 1.9 km/h 1.9 km/h 93 % 0 mm
03:22 4 °C 2.9 °C 1021.9 hPa Calm     93 % 0 mm
03:27 4 °C 2.9 °C 1021.9 hPa Calm     93 % 0 mm
03:32 4.1 °C 3 °C 1021.9 hPa Calm     93 % 0 mm
03:37 4.1 °C 3 °C 1021.9 hPa Calm     93 % 0 mm
03:42 4.1 °C 3.2 °C 1021.9 hPa Calm     94 % 0 mm
03:47 4.2 °C 3.3 °C 1021.9 hPa Calm     94 % 0 mm
03:52 4.3 °C 3.4 °C 1021.9 hPa Calm     94 % 0 mm
03:57 4.3 °C 3.4 °C 1021.9 hPa Calm     94 % 0 mm
04:02 4.4 °C 3.5 °C 1021.9 hPa Calm     94 % 0 mm
04:07 4.4 °C 3.4 °C 1022.2 hPa Calm     93 % 0 mm
04:12 4.6 °C 3.5 °C 1022.2 hPa Calm     93 % 0 mm
04:17 4.7 °C 3.6 °C 1022.2 hPa Calm     93 % 0 mm
04:22 4.8 °C 3.6 °C 1022.2 hPa Calm     92 % 0 mm
04:27 4.9 °C 3.7 °C 1022.2 hPa Calm     92 % 0 mm
04:32 4.9 °C 3.6 °C 1022.2 hPa Calm     91 % 0 mm
04:37 5 °C 3.8 °C 1022.2 hPa Calm     92 % 0 mm
04:42 5.1 °C 3.7 °C 1022.6 hPa Calm     91 % 0 mm
04:47 5.1 °C 3.8 °C 1022.6 hPa Calm     91 % 0 mm
04:52 5.2 °C 3.7 °C 1022.6 hPa Calm     90 % 0 mm
04:57 5.2 °C 3.7 °C 1022.6 hPa Calm     90 % 0 mm
05:03 5.2 °C 3.7 °C 1022.6 hPa Calm     90 % 0 mm
05:08 5.2 °C 3.7 °C 1022.6 hPa Calm     90 % 0 mm
05:13 5.3 °C 3.8 °C 1022.6 hPa WNW 1.9 km/h 1.9 km/h 90 % 0 mm
05:18 5.4 °C 3.8 °C 1022.6 hPa WNW 1.6 km/h   89 % 0 mm
05:23 5.6 °C 3.8 °C 1022.6 hPa Calm     88 % 0 mm
05:28 5.7 °C 3.7 °C 1022.6 hPa Calm     87 % 0 mm
05:33 5.7 °C 3.7 °C 1022.9 hPa Calm     87 % 0 mm
05:38 5.8 °C 3.8 °C 1022.9 hPa Calm     87 % 0 mm
05:43 5.8 °C 3.6 °C 1022.9 hPa Calm     86 % 0 mm
05:48 5.8 °C 3.7 °C 1022.9 hPa Calm     86 % 0 mm
05:53 5.9 °C 3.7 °C 1022.9 hPa Calm     86 % 0 mm
05:58 5.9 °C 3.7 °C 1022.9 hPa Calm     86 % 0 mm
06:03 5.9 °C 3.8 °C 1022.9 hPa Calm     86 % 0 mm
06:08 5.9 °C 3.9 °C 1022.9 hPa Calm     87 % 0 mm
06:13 6.1 °C 4.1 °C 1022.9 hPa Calm     87 % 0 mm
06:19 6.1 °C 4.2 °C 1023.2 hPa WNW 1.9 km/h   88 % 0 mm
06:24 6.1 °C 4.2 °C 1023.2 hPa NNW 1.9 km/h   88 % 0 mm
06:29 6.1 °C 4.4 °C 1023.2 hPa Calm     89 % 0 mm
06:34 6 °C 4.3 °C 1023.2 hPa NNW 1.9 km/h 1.9 km/h 89 % 0 mm
06:39 5.9 °C 4.4 °C 1023.2 hPa NW 1.9 km/h 1.9 km/h 90 % 0 mm
06:44 5.9 °C 4.4 °C 1023.2 hPa Calm     90 % 0 mm
06:49 6 °C 4.3 °C 1023.2 hPa Calm     89 % 0 mm
06:54 6.1 °C 4.4 °C 1023.6 hPa Calm     89 % 0 mm
06:59 6.1 °C 4.4 °C 1023.6 hPa Calm     89 % 0 mm
07:04 6.1 °C 4.4 °C 1023.6 hPa Calm     89 % 0 mm
07:09 6.1 °C 4.6 °C 1023.6 hPa Calm     90 % 0 mm
07:14 6 °C 4.5 °C 1023.6 hPa Calm     90 % 0 mm
07:19 6 °C 4.5 °C 1023.9 hPa Calm     90 % 0 mm
07:24 6 °C 4.7 °C 1023.9 hPa Calm     91 % 0 mm
07:29 6.1 °C 4.7 °C 1024.3 hPa Calm     91 % 0 mm
07:34 6.1 °C 4.7 °C 1024.3 hPa Calm     91 % 0 mm
07:39 6.2 °C 4.8 °C 1024.3 hPa Calm     91 % 0 mm
07:44 6.3 °C 4.8 °C 1024.3 hPa Calm     90 % 0 mm
07:49 6.4 °C 4.9 °C 1024.3 hPa Calm     90 % 0 mm
07:54 6.6 °C 5.1 °C 1024.3 hPa Calm     90 % 0 mm
07:59 6.7 °C 5.2 °C 1024.3 hPa Calm     90 % 0 mm
08:04 6.9 °C 5.3 °C 1024.3 hPa Calm     89 % 0 mm
08:09 7.2 °C 5.4 °C 1024.3 hPa Calm     88 % 0 mm
08:14 7.6 °C 5.2 °C 1024.6 hPa Calm     85 % 0 mm
08:19 7.8 °C 5.3 °C 1024.3 hPa Calm     84 % 0 mm
08:24 8.6 °C 5.5 °C 1024.3 hPa Calm     81 % 0 mm
08:29 8.8 °C 5.3 °C 1024.6 hPa WSW 1.6 km/h 1.6 km/h 79 % 0 mm
08:34 8.8 °C 5 °C 1024.6 hPa West 1.9 km/h   77 % 0 mm
08:39 9.2 °C 5.2 °C 1024.6 hPa WNW 1.9 km/h   76 % 0 mm
08:44 9.6 °C 5.2 °C 1024.6 hPa NW 1.9 km/h   74 % 0 mm
08:49 9.7 °C 5.1 °C 1024.6 hPa Calm     73 % 0 mm
08:54 10.1 °C 5.1 °C 1024.6 hPa Calm     71 % 0 mm
08:59 10.5 °C 5.4 °C 1024.6 hPa East 1.6 km/h   71 % 0 mm
09:04 10.8 °C 5.7 °C 1024.6 hPa SE 1.9 km/h   71 % 0 mm
09:09 11.1 °C 5.6 °C 1024.6 hPa Calm     69 % 0 mm
09:14 11.2 °C 5.3 °C 1024.6 hPa SE 1.9 km/h   67 % 0 mm
09:19 11 °C 5.1 °C 1024.6 hPa NE 3.7 km/h 3.7 km/h 67 % 0 mm
09:24 10.9 °C 5 °C 1024.9 hPa SSE 1.9 km/h 1.9 km/h 67 % 0 mm
09:29 11.1 °C 5 °C 1024.9 hPa SE 5.6 km/h 5.6 km/h 66 % 0 mm
09:34 11.4 °C 5.1 °C 1024.9 hPa SE 5.6 km/h 5.6 km/h 65 % 0 mm
09:39 11.4 °C 4.7 °C 1024.6 hPa NNW 3.7 km/h 3.7 km/h 63 % 0 mm
09:44 11.2 °C 4.7 °C 1024.9 hPa SE 1.9 km/h 1.9 km/h 64 % 0 mm
09:49 11.3 °C 4.5 °C 1024.9 hPa North 3.7 km/h 3.7 km/h 63 % 0 mm
09:54 11.3 °C 4.5 °C 1024.9 hPa NNW 3.7 km/h 3.7 km/h 63 % 0 mm
09:59 11.2 °C 4.9 °C 1024.9 hPa South 3.2 km/h 3.2 km/h 65 % 0 mm
10:04 11.7 °C 3.9 °C 1024.9 hPa South 4.8 km/h 4.8 km/h 59 % 0 mm
10:09 11.8 °C 4.3 °C 1024.9 hPa NNW 3.7 km/h 3.7 km/h 60 % 0 mm
10:14 12.1 °C 3.8 °C 1024.9 hPa SSE 4.8 km/h 4.8 km/h 57 % 0 mm
10:19 12.2 °C 3.2 °C 1024.9 hPa Calm     54 % 0 mm
10:24 12.3 °C 3.7 °C 1024.6 hPa NNW 5.6 km/h 5.6 km/h 56 % 0 mm
10:29 12.4 °C 4.3 °C 1024.6 hPa South 1.9 km/h 1.9 km/h 58 % 0 mm
10:34 12.6 °C 3.6 °C 1024.6 hPa SSE 3.7 km/h 3.7 km/h 54 % 0 mm
10:39 12.4 °C 3.7 °C 1024.6 hPa SE 5.6 km/h 5.6 km/h 55 % 0 mm
10:44 12.5 °C 3.9 °C 1024.6 hPa SE 1.9 km/h 1.9 km/h 56 % 0 mm
10:50 12.7 °C 3.3 °C 1024.6 hPa NNE 1.9 km/h 1.9 km/h 53 % 0 mm
10:54 12.4 °C 3.4 °C 1024.6 hPa WNW 5.6 km/h 5.6 km/h 54 % 0 mm
11:00 12.8 °C 3.9 °C 1024.6 hPa ESE 3.7 km/h 3.7 km/h 55 % 0 mm
11:05 13.2 °C 4.4 °C 1024.6 hPa South 3.7 km/h 3.7 km/h 55 % 0 mm
11:10 13.5 °C 4.1 °C 1024.6 hPa SSW 3.7 km/h 3.7 km/h 53 % 0 mm
11:15 13.2 °C 3.2 °C 1024.6 hPa ESE 5.6 km/h 5.6 km/h 51 % 0 mm
11:20 12.8 °C 3.5 °C 1024.6 hPa East 1.9 km/h 1.9 km/h 53 % 0 mm
11:25 13 °C 3.9 °C 1024.6 hPa SSW 1.9 km/h 1.9 km/h 54 % 0 mm
11:30 13.1 °C 3.7 °C 1024.6 hPa SSE 5.6 km/h 5.6 km/h 53 % 0 mm
11:35 13.1 °C 3.2 °C 1024.3 hPa West 5.6 km/h 5.6 km/h 51 % 0 mm
11:40 13.1 °C 4 °C 1024.3 hPa NW 5.6 km/h 5.6 km/h 54 % 0 mm
11:45 13.2 °C 4.1 °C 1024.3 hPa NNW 3.7 km/h 3.7 km/h 54 % 0 mm
11:50 13.5 °C 3.8 °C 1024.3 hPa South 5.6 km/h 5.6 km/h 52 % 0 mm
11:55 13.6 °C 4.2 °C 1024.3 hPa ENE 3.7 km/h 3.7 km/h 53 % 0 mm
12:00 13.7 °C 3.8 °C 1024.3 hPa SSW 5.6 km/h 5.6 km/h 51 % 0 mm
12:05 13.9 °C 3.9 °C 1024.3 hPa SSW 3.7 km/h 3.7 km/h 51 % 0 mm
12:10 14 °C 3.4 °C 1023.9 hPa NW 3.7 km/h 3.7 km/h 49 % 0 mm
12:15 13.9 °C 3.4 °C 1023.9 hPa SSW 3.7 km/h 3.7 km/h 49 % 0 mm
12:20 14.2 °C 3.6 °C 1023.9 hPa NW 5.6 km/h 5.6 km/h 49 % 0 mm
12:25 13.9 °C 3.6 °C 1023.9 hPa SSE 6.4 km/h 6.4 km/h 50 % 0 mm
12:30 13.8 °C 3.6 °C 1023.6 hPa NNW 4.8 km/h 4.8 km/h 50 % 0 mm
12:35 13.7 °C 3.2 °C 1023.6 hPa NW 5.6 km/h 5.6 km/h 49 % 0 mm
12:40 13.8 °C 3.3 °C 1023.6 hPa North 5.6 km/h 5.6 km/h 49 % 0 mm
12:45 13.8 °C 3.8 °C 1023.6 hPa NW 1.9 km/h 1.9 km/h 51 % 0 mm
12:50 13.7 °C 3.7 °C 1023.2 hPa WNW 1.9 km/h 1.9 km/h 51 % 0 mm
12:55 13.5 °C 3.3 °C 1023.2 hPa NNW 3.7 km/h 3.7 km/h 50 % 0 mm
13:00 13.5 °C 3.3 °C 1023.2 hPa North 3.7 km/h 3.7 km/h 50 % 0 mm
13:05 13.9 °C 3.9 °C 1023.2 hPa SSE 3.2 km/h 3.2 km/h 51 % 0 mm
13:10 14.3 °C 3.4 °C 1023.2 hPa SSE 7.4 km/h 7.4 km/h 48 % 0 mm
13:15 14.4 °C 3.8 °C 1022.9 hPa South 5.6 km/h 5.6 km/h 49 % 0 mm
13:21 14.4 °C 2.6 °C 1022.9 hPa Calm     45 % 0 mm
13:26 14.3 °C 4 °C 1022.9 hPa West 3.7 km/h   50 % 0 mm
13:31 14.2 °C 3.9 °C 1022.9 hPa NNW 1.9 km/h 1.9 km/h 50 % 0 mm
13:36 14 °C 4 °C 1022.6 hPa WSW 5.6 km/h 5.6 km/h 51 % 0 mm
13:41 14.2 °C 3.9 °C 1022.6 hPa WNW 1.9 km/h 1.9 km/h 50 % 0 mm
13:46 14.2 °C 4.5 °C 1022.6 hPa NE 5.6 km/h 5.6 km/h 52 % 0 mm
13:51 14.3 °C 4.1 °C 1022.6 hPa South 1.9 km/h 1.9 km/h 50 % 0 mm
13:56 14.3 °C 4 °C 1022.6 hPa SSE 5.6 km/h 5.6 km/h 50 % 0 mm
14:01 14.1 °C 3.8 °C 1022.2 hPa WNW 5.6 km/h 5.6 km/h 50 % 0 mm
14:06 14 °C 3.7 °C 1022.2 hPa NW 5.6 km/h 5.6 km/h 50 % 0 mm
14:11 14.1 °C 3.8 °C 1022.2 hPa SSW 4.8 km/h 4.8 km/h 50 % 0 mm
14:16 14.3 °C 4.1 °C 1022.2 hPa NW 1.6 km/h 1.6 km/h 50 % 0 mm
14:21 14 °C 4 °C 1022.2 hPa North 1.9 km/h 1.9 km/h 51 % 0 mm
14:26 14.1 °C 4.1 °C 1022.2 hPa NW 1.9 km/h 1.9 km/h 51 % 0 mm
14:31 14.2 °C 3.9 °C 1022.2 hPa SSE 1.9 km/h 1.9 km/h 50 % 0 mm
14:36 14.3 °C 4.3 °C 1022.2 hPa South 1.6 km/h   51 % 0 mm
14:41 14.4 °C 4.2 °C 1022.2 hPa WNW 3.7 km/h 3.7 km/h 50 % 0 mm
14:46 14.1 °C 3.8 °C 1022.2 hPa NE 5.6 km/h 5.6 km/h 50 % 0 mm
14:51 13.7 °C 4.1 °C 1022.2 hPa NNW 1.9 km/h 1.9 km/h 52 % 0 mm
14:56 13.7 °C 3.8 °C 1022.2 hPa WNW 3.7 km/h 3.7 km/h 51 % 0 mm
15:01 13.7 °C 4 °C 1022.2 hPa WNW 3.7 km/h   52 % 0 mm
15:06 14 °C 4.3 °C 1022.2 hPa NNW 5.6 km/h 5.6 km/h 52 % 0 mm
15:11 14.3 °C 4 °C 1022.2 hPa SSW 1.9 km/h 1.9 km/h 50 % 0 mm
15:16 14.3 °C 4.1 °C 1021.9 hPa Calm     50 % 0 mm
15:21 14.1 °C 3.8 °C 1021.9 hPa NNE 1.9 km/h   50 % 0 mm
15:26 13.9 °C 4.2 °C 1021.9 hPa NW 5.6 km/h 5.6 km/h 52 % 0 mm
15:31 13.8 °C 4.1 °C 1021.9 hPa SSW 3.7 km/h 3.7 km/h 52 % 0 mm
15:36 13.7 °C 4.1 °C 1021.9 hPa NNW 1.9 km/h 1.9 km/h 52 % 0 mm
15:41 13.8 °C 4.1 °C 1021.6 hPa Calm     52 % 0 mm
15:46 13.8 °C 4.1 °C 1021.6 hPa Calm     52 % 0 mm
15:51 13.8 °C 3.8 °C 1021.6 hPa North 1.9 km/h   51 % 0 mm
15:56 13.7 °C 3.8 °C 1021.6 hPa East 1.9 km/h 1.9 km/h 51 % 0 mm
16:01 13.7 °C 4.3 °C 1021.6 hPa West 5.6 km/h 5.6 km/h 53 % 0 mm
16:06 13.6 °C 4.2 °C 1021.6 hPa Calm     53 % 0 mm
16:11 13.6 °C 4.2 °C 1021.6 hPa Calm     53 % 0 mm
16:16 13.6 °C 4.2 °C 1021.6 hPa West 5.6 km/h 5.6 km/h 53 % 0 mm
16:21 13.4 °C 4 °C 1021.6 hPa Calm     53 % 0 mm
16:26 13.2 °C 4.1 °C 1021.6 hPa North 1.9 km/h 1.9 km/h 54 % 0 mm
16:31 13.2 °C 4.1 °C 1021.6 hPa Calm     54 % 0 mm
16:36 13.2 °C 3.8 °C 1021.6 hPa Calm     53 % 0 mm
16:41 13.1 °C 4.3 °C 1021.6 hPa NW 1.9 km/h   55 % 0 mm
16:46 13.1 °C 4.3 °C 1021.6 hPa Calm     55 % 0 mm
16:51 13.1 °C 4.3 °C 1021.6 hPa Calm     55 % 0 mm
16:56 13.2 °C 4.4 °C 1021.6 hPa NNW 1.9 km/h   55 % 0 mm
17:01 13.2 °C 3.8 °C 1021.6 hPa Calm     53 % 0 mm
17:06 13.2 °C 4.1 °C 1021.6 hPa Calm     54 % 0 mm
17:11 13.2 °C 4.1 °C 1021.6 hPa Calm     54 % 0 mm
17:16 13.1 °C 4 °C 1021.2 hPa Calm     54 % 0 mm
17:21 13 °C 4.2 °C 1021.2 hPa Calm     55 % 0 mm
17:26 12.8 °C 4 °C 1021.2 hPa Calm     55 % 0 mm
17:31 12.6 °C 4.3 °C 1021.2 hPa Calm     57 % 0 mm
17:36 12.4 °C 4.1 °C 1021.2 hPa Calm     57 % 0 mm
17:41 12.2 °C 4.2 °C 1021.2 hPa Calm     58 % 0 mm
17:46 11.9 °C 4.4 °C 1021.2 hPa Calm     60 % 0 mm
17:51 11.7 °C 4.6 °C 1021.2 hPa Calm     62 % 0 mm
17:56 11.4 °C 4.9 °C 1021.2 hPa Calm     64 % 0 mm
18:01 11.2 °C 4.4 °C 1021.2 hPa Calm     63 % 0 mm
18:06 10.9 °C 4.4 °C 1021.2 hPa Calm     64 % 0 mm
18:11 10.7 °C 4.4 °C 1021.2 hPa Calm     65 % 0 mm
18:16 10.6 °C 4.4 °C 1021.2 hPa Calm     66 % 0 mm
18:21 10.4 °C 4.7 °C 1021.2 hPa Calm     68 % 0 mm
18:26 10.2 °C 4.9 °C 1021.2 hPa Calm     70 % 0 mm
18:31 9.9 °C 4.9 °C 1021.2 hPa Calm     71 % 0 mm
18:36 9.7 °C 5.1 °C 1021.2 hPa Calm     73 % 0 mm
18:41 9.4 °C 5 °C 1021.6 hPa Calm     74 % 0 mm
18:47 9.2 °C 5 °C 1021.6 hPa Calm     75 % 0 mm
18:51 9 °C 4.6 °C 1021.6 hPa Calm     74 % 0 mm
18:56 8.9 °C 5.1 °C 1021.6 hPa Calm     77 % 0 mm
19:02 8.9 °C 5.1 °C 1021.6 hPa Calm     77 % 0 mm
19:07 8.9 °C 4.9 °C 1021.6 hPa Calm     76 % 0 mm
19:12 8.9 °C 4.9 °C 1021.6 hPa Calm     76 % 0 mm
19:17 8.8 °C 4.8 °C 1021.6 hPa Calm     76 % 0 mm
19:22 8.8 °C 5.2 °C 1021.6 hPa Calm     78 % 0 mm
19:27 8.7 °C 5.1 °C 1021.6 hPa Calm     78 % 0 mm
19:32 8.6 °C 4.8 °C 1021.6 hPa Calm     77 % 0 mm
19:37 8.5 °C 4.9 °C 1021.6 hPa Calm     78 % 0 mm
19:42 8.4 °C 4.8 °C 1021.6 hPa Calm     78 % 0 mm
19:47 8.4 °C 4.8 °C 1021.6 hPa Calm     78 % 0 mm
19:52 8.3 °C 4.6 °C 1021.6 hPa Calm     77 % 0 mm
19:57 9.1 °C 4.4 °C 1021.6 hPa Calm     73 % 0 mm
20:02 9.5 °C 4.5 °C 1021.6 hPa Calm     71 % 0 mm
20:07 9.7 °C 4.4 °C 1021.6 hPa Calm     70 % 0 mm
20:12 9.7 °C 4.7 °C 1021.6 hPa Calm     71 % 0 mm
20:17 9.6 °C 4.8 °C 1021.6 hPa Calm     72 % 0 mm
20:22 9.3 °C 4.9 °C 1021.6 hPa Calm     74 % 0 mm
20:27 9.1 °C 4.8 °C 1021.9 hPa Calm     75 % 0 mm
20:32 8.8 °C 4.8 °C 1021.9 hPa Calm     76 % 0 mm
20:37 8.6 °C 4.6 °C 1021.9 hPa Calm     76 % 0 mm
20:42 8.5 °C 4.7 °C 1021.9 hPa Calm     77 % 0 mm
20:47 8.4 °C 4.7 °C 1021.9 hPa Calm     77 % 0 mm
20:52 8.4 °C 4.7 °C 1021.9 hPa Calm     77 % 0 mm
20:57 8.3 °C 4.7 °C 1021.9 hPa Calm     78 % 0 mm
21:02 8 °C 4.4 °C 1021.9 hPa Calm     78 % 0 mm
21:07 7.8 °C 4.4 °C 1021.9 hPa Calm     79 % 0 mm
21:12 7.7 °C 4.3 °C 1021.9 hPa Calm     79 % 0 mm
21:17 7.7 °C 4.3 °C 1021.9 hPa Calm     79 % 0 mm
21:22 7.7 °C 4.3 °C 1021.9 hPa Calm     79 % 0 mm
21:27 7.7 °C 4.3 °C 1021.9 hPa Calm     79 % 0 mm
21:32 7.6 °C 4.2 °C 1021.9 hPa Calm     79 % 0 mm
21:37 7.5 °C 4.3 °C 1021.9 hPa Calm     80 % 0 mm
21:42 7.4 °C 4.3 °C 1022.2 hPa Calm     81 % 0 mm
21:47 7.3 °C 4.2 °C 1021.9 hPa Calm     81 % 0 mm
21:52 7.2 °C 4.1 °C 1021.9 hPa Calm     81 % 0 mm
21:57 7.1 °C 4.1 °C 1021.9 hPa Calm     81 % 0 mm
22:02 7.1 °C 4 °C 1021.9 hPa Calm     81 % 0 mm
22:07 6.9 °C 4.1 °C 1021.6 hPa Calm     82 % 0 mm
22:12 6.9 °C 4 °C 1021.9 hPa Calm     82 % 0 mm
22:17 6.8 °C 3.9 °C 1021.6 hPa Calm     82 % 0 mm
22:22 6.7 °C 4 °C 1021.6 hPa Calm     83 % 0 mm
22:27 6.7 °C 4.2 °C 1021.6 hPa Calm     84 % 0 mm
22:32 6.7 °C 4.2 °C 1021.6 hPa Calm     84 % 0 mm
22:37 6.8 °C 4.3 °C 1021.6 hPa Calm     84 % 0 mm
22:43 6.8 °C 4.3 °C 1021.9 hPa Calm     84 % 0 mm
22:48 6.8 °C 4.5 °C 1021.9 hPa Calm     85 % 0 mm
22:53 6.7 °C 4.2 °C 1021.9 hPa Calm     84 % 0 mm
22:58 6.6 °C 4.3 °C 1021.9 hPa Calm     85 % 0 mm
23:03 6.7 °C 4.3 °C 1021.9 hPa Calm     85 % 0 mm
23:08 6.6 °C 4.4 °C 1021.9 hPa Calm     86 % 0 mm
23:13 6.5 °C 4.2 °C 1021.6 hPa Calm     85 % 0 mm
23:18 6.3 °C 4.2 °C 1021.6 hPa Calm     86 % 0 mm
23:23 6.2 °C 4 °C 1021.6 hPa Calm     86 % 0 mm
23:28 6.1 °C 3.9 °C 1021.6 hPa Calm     86 % 0 mm
23:33 6.1 °C 4.1 °C 1021.6 hPa Calm     87 % 0 mm
23:38 6.3 °C 4.1 °C 1021.6 hPa Calm     86 % 0 mm
23:43 6.4 °C 4.1 °C 1021.6 hPa Calm     85 % 0 mm
23:48 6.1 °C 3.9 °C 1021.9 hPa Calm     86 % 0 mm
23:53 6 °C 3.8 °C 1021.6 hPa Calm     86 % 0 mm
23:58 6 °C 4 °C 1021.9 hPa Calm     87 % 0 mm
Park Place, Exeter, Tulare County, California, USA
Compliments of Weather Underground - 2.75 mb